Time,TemperatureF,DewpointF,PressureIn,WindDirection,WindDirectionDegrees,WindSpeedMPH,WindSpeedGustMPH,Humidity,HourlyPrecipIn,Conditions,Clouds,dailyrainin,SoftwareType,DateUTC
2013-05-12 00:14:00,58.3,49.0,28.09,SSE,150,1.0,6.0,72,0.00,,,0.00,weatherlink.com 1.10,2013-05-12 04:14:00,
2013-05-12 00:29:00,57.8,50.0,28.09,SE,130,2.0,5.0,74,0.00,,,0.00,weatherlink.com 1.10,2013-05-12 04:29:00,
2013-05-12 00:44:00,57.4,48.0,28.09,South,171,1.0,6.0,71,0.00,,,0.00,weatherlink.com 1.10,2013-05-12 04:44:00,
2013-05-12 00:59:00,57.3,48.0,28.09,SSW,197,0.0,4.0,70,0.00,,,0.00,weatherlink.com 1.10,2013-05-12 04:59:00,
2013-05-12 01:14:00,56.6,49.0,28.10,South,186,0.0,1.0,75,0.00,,,0.00,weatherlink.com 1.10,2013-05-12 05:14:00,
2013-05-12 01:29:00,55.1,48.0,28.10,SW,214,0.0,3.0,76,0.00,,,0.00,weatherlink.com 1.10,2013-05-12 05:29:00,
2013-05-12 01:44:00,53.9,46.0,28.09,SSW,201,0.0,1.0,74,0.00,,,0.00,weatherlink.com 1.10,2013-05-12 05:44:00,
2013-05-12 01:59:00,52.6,44.0,28.09,South,191,0.0,1.0,72,0.00,,,0.00,weatherlink.com 1.10,2013-05-12 05:59:00,
2013-05-12 02:14:00,51.8,43.0,28.09,WNW,298,0.0,1.0,73,0.00,,,0.00,weatherlink.com 1.10,2013-05-12 06:14:00,
2013-05-12 02:29:00,50.5,43.0,28.09,SSW,192,0.0,1.0,76,0.00,,,0.00,weatherlink.com 1.10,2013-05-12 06:29:00,
2013-05-12 02:44:00,49.1,43.0,28.09,SSW,192,0.0,1.0,80,0.00,,,0.00,weatherlink.com 1.10,2013-05-12 06:44:00,
2013-05-12 02:59:00,48.7,43.0,28.09,SSW,201,0.0,1.0,81,0.00,,,0.00,weatherlink.com 1.10,2013-05-12 06:59:00,
2013-05-12 03:14:00,48.5,44.0,28.09,SSW,201,0.0,0.0,85,0.00,,,0.00,weatherlink.com 1.10,2013-05-12 07:14:00,
2013-05-12 03:29:00,48.8,45.0,28.09,SSW,201,0.0,0.0,85,0.00,,,0.00,weatherlink.com 1.10,2013-05-12 07:29:00,
2013-05-12 03:44:00,49.2,45.0,28.09,SSW,200,0.0,0.0,85,0.00,,,0.00,weatherlink.com 1.10,2013-05-12 07:44:00,
2013-05-12 03:59:00,50.5,45.0,28.07,South,187,0.0,0.0,80,0.00,,,0.00,weatherlink.com 1.10,2013-05-12 07:59:00,
2013-05-12 04:14:00,50.0,44.0,28.07,SSW,207,0.0,2.0,81,0.00,,,0.00,weatherlink.com 1.10,2013-05-12 08:14:00,
2013-05-12 04:29:00,49.4,44.0,28.07,South,174,0.0,2.0,83,0.00,,,0.00,weatherlink.com 1.10,2013-05-12 08:29:00,
2013-05-12 04:44:00,49.6,45.0,28.08,South,186,0.0,0.0,84,0.00,,,0.00,weatherlink.com 1.10,2013-05-12 08:44:00,
2013-05-12 04:59:00,50.4,44.0,28.07,South,190,0.0,2.0,80,0.00,,,0.00,weatherlink.com 1.10,2013-05-12 08:59:00,
2013-05-12 05:14:00,51.0,46.0,28.07,South,190,0.0,0.0,82,0.00,,,0.00,weatherlink.com 1.10,2013-05-12 09:14:00,
2013-05-12 05:29:00,51.1,46.0,28.09,NW,321,0.0,2.0,84,0.00,,,0.00,weatherlink.com 1.10,2013-05-12 09:29:00,
2013-05-12 05:44:00,50.5,43.0,28.11,SE,129,2.0,10.0,76,0.00,,,0.00,weatherlink.com 1.10,2013-05-12 09:44:00,
2013-05-12 05:59:00,49.2,40.0,28.12,SSE,148,5.0,10.0,71,0.00,,,0.00,weatherlink.com 1.10,2013-05-12 09:59:00,
2013-05-12 06:14:00,48.3,39.0,28.13,SSW,211,2.0,11.0,71,0.00,,,0.00,weatherlink.com 1.10,2013-05-12 10:14:00,
2013-05-12 06:29:00,47.7,39.0,28.13,SSW,210,2.0,7.0,71,0.00,,,0.00,weatherlink.com 1.10,2013-05-12 10:29:00,
2013-05-12 06:44:00,47.5,37.0,28.14,NNW,328,0.0,5.0,66,0.00,,,0.00,weatherlink.com 1.10,2013-05-12 10:44:00,
2013-05-12 06:59:00,46.9,36.0,28.14,SSW,208,1.0,4.0,67,0.00,,,0.00,weatherlink.com 1.10,2013-05-12 10:59:00,
2013-05-12 07:14:00,47.0,36.0,28.14,NE,44,0.0,5.0,65,0.00,,,0.00,weatherlink.com 1.10,2013-05-12 11:14:00,
2013-05-12 07:29:00,47.9,34.0,28.14,SSE,163,3.0,10.0,59,0.00,,,0.00,weatherlink.com 1.10,2013-05-12 11:29:00,
2013-05-12 07:44:00,48.6,33.0,28.13,NNW,327,2.0,6.0,55,0.00,,,0.00,weatherlink.com 1.10,2013-05-12 11:44:00,
2013-05-12 07:59:00,49.1,35.0,28.14,ENE,77,3.0,6.0,58,0.00,,,0.00,weatherlink.com 1.10,2013-05-12 11:59:00,
2013-05-12 08:15:00,49.7,33.0,28.13,East,96,3.0,7.0,54,0.00,,,0.00,weatherlink.com 1.10,2013-05-12 12:15:00,
2013-05-12 08:30:00,50.3,35.0,28.14,SW,228,3.0,6.0,56,0.00,,,0.00,weatherlink.com 1.10,2013-05-12 12:30:00,
2013-05-12 08:45:00,51.3,36.0,28.14,SW,219,5.0,6.0,57,0.00,,,0.00,weatherlink.com 1.10,2013-05-12 12:45:00,
2013-05-12 09:00:00,51.4,36.0,28.15,NW,312,0.0,8.0,56,0.00,,,0.00,weatherlink.com 1.10,2013-05-12 13:00:00,
2013-05-12 09:15:00,52.4,36.0,28.15,ESE,114,2.0,8.0,54,0.00,,,0.00,weatherlink.com 1.10,2013-05-12 13:15:00,
2013-05-12 09:30:00,53.0,33.0,28.15,NNE,27,3.0,10.0,47,0.00,,,0.00,weatherlink.com 1.10,2013-05-12 13:30:00,
2013-05-12 09:45:00,53.1,36.0,28.16,SSE,154,3.0,9.0,52,0.00,,,0.00,weatherlink.com 1.10,2013-05-12 13:45:00,
2013-05-12 10:00:00,53.0,34.0,28.15,West,271,0.0,20.0,48,0.00,,,0.00,weatherlink.com 1.10,2013-05-12 14:00:00,
2013-05-12 10:15:00,53.3,36.0,28.16,WSW,252,1.0,11.0,52,0.00,,,0.00,weatherlink.com 1.10,2013-05-12 14:15:00,
2013-05-12 10:30:00,53.8,35.0,28.16,SSE,166,0.0,11.0,49,0.00,,,0.00,weatherlink.com 1.10,2013-05-12 14:30:00,
2013-05-12 10:45:00,53.7,33.0,28.16,SSE,162,6.0,14.0,45,0.00,,,0.00,weatherlink.com 1.10,2013-05-12 14:45:00,
2013-05-12 11:00:00,53.5,31.0,28.17,SW,236,10.0,18.0,42,0.00,,,0.00,weatherlink.com 1.10,2013-05-12 15:00:00,
2013-05-12 11:15:00,53.8,32.0,28.16,North,360,8.0,13.0,44,0.00,,,0.00,weatherlink.com 1.10,2013-05-12 15:15:00,
2013-05-12 11:30:00,55.2,32.0,28.16,NNW,336,0.0,7.0,41,0.00,,,0.00,weatherlink.com 1.10,2013-05-12 15:30:00,
2013-05-12 11:45:00,55.0,31.0,28.16,NNE,15,1.0,10.0,40,0.00,,,0.00,weatherlink.com 1.10,2013-05-12 15:45:00,
2013-05-12 12:00:00,55.7,31.0,28.16,West,269,1.0,6.0,39,0.00,,,0.00,weatherlink.com 1.10,2013-05-12 16:00:00,
2013-05-12 12:15:00,56.6,30.0,28.15,ENE,60,1.0,7.0,37,0.00,,,0.00,weatherlink.com 1.10,2013-05-12 16:15:00,
2013-05-12 12:30:00,56.6,32.0,28.15,South,170,9.0,14.0,40,0.00,,,0.00,weatherlink.com 1.10,2013-05-12 16:30:00,
2013-05-12 12:45:00,56.5,34.0,28.16,SE,129,3.0,11.0,43,0.00,,,0.00,weatherlink.com 1.10,2013-05-12 16:45:00,
2013-05-12 13:00:00,56.7,33.0,28.16,South,179,5.0,13.0,41,0.00,,,0.00,weatherlink.com 1.10,2013-05-12 17:00:00,
2013-05-12 13:15:00,57.2,30.0,28.17,SSW,204,2.0,7.0,35,0.00,,,0.00,weatherlink.com 1.10,2013-05-12 17:15:00,
2013-05-12 13:30:00,57.6,33.0,28.17,SSE,150,5.0,16.0,39,0.00,,,0.00,weatherlink.com 1.10,2013-05-12 17:30:00,
2013-05-12 13:45:00,59.2,34.0,28.18,SSE,159,3.0,9.0,39,0.00,,,0.00,weatherlink.com 1.10,2013-05-12 17:45:00,
2013-05-12 14:00:00,57.3,31.0,28.18,South,184,2.0,10.0,37,0.00,,,0.00,weatherlink.com 1.10,2013-05-12 18:00:00,
2013-05-12 14:15:00,56.9,34.0,28.18,ESE,123,1.0,14.0,43,0.00,,,0.00,weatherlink.com 1.10,2013-05-12 18:15:00,
2013-05-12 14:30:00,56.9,32.0,28.18,South,177,0.0,6.0,39,0.00,,,0.00,weatherlink.com 1.10,2013-05-12 18:30:00,
2013-05-12 14:45:00,56.3,33.0,28.18,SSW,197,0.0,5.0,41,0.00,,,0.00,weatherlink.com 1.10,2013-05-12 18:45:00,
2013-05-12 15:00:00,57.5,33.0,28.19,South,174,10.0,16.0,40,0.00,,,0.00,weatherlink.com 1.10,2013-05-12 19:00:00,
2013-05-12 15:15:00,55.5,31.0,28.19,SSE,161,2.0,14.0,40,0.00,,,0.00,weatherlink.com 1.10,2013-05-12 19:15:00,
2013-05-12 15:30:00,55.0,33.0,28.20,ESE,119,2.0,16.0,43,0.00,,,0.00,weatherlink.com 1.10,2013-05-12 19:30:00,
2013-05-12 15:45:00,54.6,30.0,28.19,East,90,2.0,11.0,39,0.00,,,0.00,weatherlink.com 1.10,2013-05-12 19:45:00,
2013-05-12 16:01:00,55.2,28.0,28.20,SSW,193,1.0,8.0,36,0.00,,,0.00,weatherlink.com 1.10,2013-05-12 20:01:00,
2013-05-12 16:15:00,55.1,31.0,28.19,East,92,1.0,13.0,40,0.00,,,0.00,weatherlink.com 1.10,2013-05-12 20:15:00,
2013-05-12 16:30:00,54.7,29.0,28.19,NW,312,1.0,8.0,38,0.00,,,0.00,weatherlink.com 1.10,2013-05-12 20:30:00,
2013-05-12 16:45:00,53.3,29.0,28.20,West,264,0.0,12.0,39,0.00,,,0.00,weatherlink.com 1.10,2013-05-12 20:45:00,
2013-05-12 17:00:00,53.8,29.0,28.20,South,171,0.0,11.0,38,0.00,,,0.00,weatherlink.com 1.10,2013-05-12 21:00:00,
2013-05-12 17:15:00,53.5,30.0,28.21,SSE,148,0.0,10.0,41,0.00,,,0.00,weatherlink.com 1.10,2013-05-12 21:15:00,
2013-05-12 17:30:00,54.4,30.0,28.20,SSE,160,6.0,8.0,39,0.00,,,0.00,weatherlink.com 1.10,2013-05-12 21:30:00,
2013-05-12 17:45:00,53.7,29.0,28.21,SW,217,1.0,10.0,39,0.00,,,0.00,weatherlink.com 1.10,2013-05-12 21:45:00,
2013-05-12 18:00:00,53.5,29.0,28.21,ESE,105,0.0,9.0,39,0.00,,,0.00,weatherlink.com 1.10,2013-05-12 22:00:00,
2013-05-12 18:15:00,53.2,30.0,28.21,SSW,198,1.0,7.0,41,0.00,,,0.00,weatherlink.com 1.10,2013-05-12 22:15:00,
2013-05-12 18:30:00,52.7,28.0,28.21,SSE,150,1.0,13.0,39,0.00,,,0.00,weatherlink.com 1.10,2013-05-12 22:30:00,
2013-05-12 18:46:00,52.0,29.0,28.21,NW,316,1.0,6.0,42,0.00,,,0.00,weatherlink.com 1.10,2013-05-12 22:46:00,
2013-05-12 19:01:00,51.3,30.0,28.22,South,186,0.0,12.0,44,0.00,,,0.00,weatherlink.com 1.10,2013-05-12 23:01:00,
2013-05-12 19:16:00,50.5,29.0,28.22,NE,40,1.0,9.0,44,0.00,,,0.00,weatherlink.com 1.10,2013-05-12 23:16:00,
2013-05-12 19:31:00,50.3,29.0,28.23,SSW,212,1.0,8.0,44,0.00,,,0.00,weatherlink.com 1.10,2013-05-12 23:31:00,
2013-05-12 19:46:00,49.7,29.0,28.23,SSE,160,1.0,4.0,45,0.00,,,0.00,weatherlink.com 1.10,2013-05-12 23:46:00,
2013-05-12 20:01:00,48.5,32.0,28.24,SW,219,0.0,3.0,53,0.00,,,0.00,weatherlink.com 1.10,2013-05-13 00:01:00,
2013-05-12 20:16:00,47.9,27.0,28.24,SE,134,1.0,7.0,45,0.00,,,0.00,weatherlink.com 1.10,2013-05-13 00:16:00,
2013-05-12 20:31:00,47.5,28.0,28.24,WSW,239,0.0,7.0,48,0.00,,,0.00,weatherlink.com 1.10,2013-05-13 00:31:00,
2013-05-12 20:46:00,46.6,29.0,28.25,SSE,166,0.0,3.0,50,0.00,,,0.00,weatherlink.com 1.10,2013-05-13 00:46:00,
2013-05-12 21:01:00,46.3,27.0,28.25,SW,229,1.0,7.0,48,0.00,,,0.00,weatherlink.com 1.10,2013-05-13 01:01:00,
2013-05-12 21:16:00,45.7,30.0,28.26,SSW,200,0.0,3.0,55,0.00,,,0.00,weatherlink.com 1.10,2013-05-13 01:16:00,
2013-05-12 21:31:00,43.7,30.0,28.26,SSW,201,0.0,1.0,58,0.00,,,0.00,weatherlink.com 1.10,2013-05-13 01:31:00,
2013-05-12 21:46:00,43.2,31.0,28.27,SSW,210,0.0,1.0,62,0.00,,,0.00,weatherlink.com 1.10,2013-05-13 01:46:00,
2013-05-12 22:01:00,42.0,31.0,28.28,SSW,194,0.0,2.0,64,0.00,,,0.00,weatherlink.com 1.10,2013-05-13 02:01:00,
2013-05-12 22:16:00,41.6,31.0,28.29,SW,229,0.0,1.0,66,0.00,,,0.00,weatherlink.com 1.10,2013-05-13 02:16:00,
2013-05-12 22:31:00,40.4,32.0,28.29,SW,228,0.0,0.0,72,0.00,,,0.00,weatherlink.com 1.10,2013-05-13 02:31:00,
2013-05-12 22:46:00,39.6,32.0,28.29,SW,228,0.0,1.0,75,0.00,,,0.00,weatherlink.com 1.10,2013-05-13 02:46:00,
2013-05-12 23:01:00,39.0,32.0,28.29,SSW,207,0.0,1.0,76,0.00,,,0.00,weatherlink.com 1.10,2013-05-13 03:01:00,
2013-05-12 23:16:00,38.5,33.0,28.29,NNW,336,1.0,1.0,81,0.00,,,0.00,weatherlink.com 1.10,2013-05-13 03:16:00,
2013-05-12 23:32:00,38.9,33.0,28.29,NNW,336,0.0,0.0,80,0.00,,,0.00,weatherlink.com 1.10,2013-05-13 03:32:00,
2013-05-12 23:47:00,38.8,34.0,28.30,NNW,336,0.0,0.0,84,0.00,,,0.00,weatherlink.com 1.10,2013-05-13 03:47:00,